Pian Rosa, Italy

6:29 AM CET on December 08, 2016 (GMT +0100)
Pian Rosa

Weather History for LIMH - August, 2013

Change the Weather History Date:

Friday, August 23, 2013

  Actual Average Record
Temperature  
Mean Temperature 40 °F -  
Max Temperature 45 °F 36 °F 48 °F (2016)
Min Temperature 35 °F 27 °F 21 °F (2008)
Degree Days  
Heating Degree Days 25    
Moisture  
Dew Point 32 °F    
Average Humidity 72    
Maximum Humidity 100    
Minimum Humidity 35    
Precipitation  
Precipitation 0.00 in - - ()
Sea Level Pressure  
Sea Level Pressure 30.44 in    
Wind  
Wind Speed 3 mph ()    
Max Wind Speed 7 mph    
Max Gust Speed -    
Visibility 3.7 miles    
Events Fog    
Averages and records for this station are not official NWS values.
T = Trace of Precipitation, MM = Missing Value Source: Averaged Metar Reports

Daily Weather History Graph

Daily Weather History Graph

Search for Another Location

Airport or City:

Trip Planner

Search our weather history database for the weather conditions in past years. The results will help you decide how hot, cold, wet, or windy it might be!

Date:

Astronomy

Aug. 23, 2013 Rise Set
Actual Time 6:38 AM CEST 8:23 PM CEST
Civil Twilight 6:07 AM CEST 8:55 PM CEST
Nautical Twilight 5:28 AM CEST 9:34 PM CEST
Astronomical Twilight 4:46 AM CEST 10:15 PM CEST
Moon 9:19 PM CEST (8/23) 9:28 AM CEST (8/23)
Length of Visible Light 14h 48m
Length of Day
13h 45m
Waning Gibbous, 93% of the Moon is Illuminated
Aug 23
Waning Gibbous
Aug 28
Last Quarter
Sep 5
New
Sep 12
First Quarter
Sep 19
Full

Hourly Weather History & Observations

Time (CEST) Temp. Windchill Dew Point Humidity Pressure Visibility Wind Dir Wind Speed Gust Speed Precip Events Conditions
12:55 AM 39.2 °F - 35.6 °F 87% 30.48 in 0.3 mi SSW 2.3 mph - N/A Fog Fog
1:55 AM 39.2 °F 35.0 °F 35.6 °F 87% 30.48 in 0.3 mi SW 5.8 mph - N/A Fog Fog
2:00 AM 38 °F - 35 °F 84%  in 0 mi SW 5.8 mph - - Fog Heavy Fog
2:55 AM 37.4 °F 32.8 °F 35.6 °F 93% 30.48 in 0.3 mi SW 5.8 mph - N/A Fog Fog
3:55 AM 37.4 °F 33.8 °F 32.0 °F 81% 30.45 in 0.3 mi SW 4.6 mph - N/A Fog Fog
4:55 AM 37.4 °F 32.8 °F 35.6 °F 93% 30.45 in 6.2 mi SW 5.8 mph - N/A   Scattered Clouds
5:55 AM 37.4 °F 32.1 °F 35.6 °F 93% 30.45 in 0.5 mi SW 6.9 mph - N/A Fog Fog
6:55 AM 35.6 °F 32.8 °F 35.6 °F 100% 30.42 in - Variable 3.5 mph - N/A   Clear
7:55 AM 35.6 °F - 28.4 °F 75% 30.42 in - Variable 1.2 mph - N/A   Clear
8:00 AM 36 °F - 29 °F 67%  in 25 mi 1.2 mph - -   Partly Cloudy
8:55 AM 37.4 °F 33.8 °F 28.4 °F 70% 30.42 in - East 4.6 mph - N/A   Clear
9:55 AM 39.2 °F - 21.2 °F 49% 30.42 in - Variable 2.3 mph - N/A   Clear
10:55 AM 41.0 °F - 23.0 °F 49% 30.42 in - Variable 2.3 mph - N/A   Clear
11:00 AM 41 °F - 23 °F 35%  in 16 mi 2.3 mph - -  
11:55 AM 41.0 °F - 32.0 °F 70% 30.42 in 2.5 mi Variable 2.3 mph - N/A   Mist
12:55 PM 42.8 °F - 33.8 °F 70% 30.45 in 1.9 mi Variable 1.2 mph - N/A   Mist
1:55 PM 44.6 °F - 32.0 °F 61% 30.45 in 3.1 mi Variable 2.3 mph - N/A   Scattered Clouds
2:00 PM 44 °F - 32 °F 52%  in 3 mi 2.3 mph - -   Mist
2:55 PM 44.6 °F 43.1 °F 32.0 °F 61% 30.45 in 4.3 mi Variable 3.5 mph - N/A   Scattered Clouds
3:55 PM 44.6 °F 43.1 °F 33.8 °F 66% 30.42 in 0.9 mi Variable 3.5 mph - N/A   Mist
4:55 PM 44.6 °F 43.1 °F 33.8 °F 66% 30.45 in 1.2 mi Variable 3.5 mph - N/A   Scattered Clouds
5:00 PM 44 °F - 34 °F 58%  in 1 mi 3.5 mph - -   Mist
5:55 PM 44.6 °F - 32.0 °F 61% 30.42 in 5.0 mi Variable 2.3 mph - N/A   Scattered Clouds
6:55 PM 42.8 °F 41.1 °F 30.2 °F 61% 30.45 in 5.0 mi Variable 3.5 mph - N/A   Scattered Clouds
7:55 PM 41.0 °F 39.0 °F 30.2 °F 65% 30.42 in 5.0 mi Variable 3.5 mph - N/A   Scattered Clouds
8:00 PM 40 °F - 31 °F 59%  in 5 mi 3.5 mph - -   Mist
8:55 PM 39.2 °F - 33.8 °F 81% 30.45 in 6.2 mi Variable 1.2 mph - N/A   Scattered Clouds
9:55 PM 39.2 °F - 32.0 °F 75% 30.45 in 6.2 mi Variable 2.3 mph - N/A   Scattered Clouds
10:55 PM 37.4 °F - 33.8 °F 87% 30.42 in 6.2 mi Variable 2.3 mph - N/A   Scattered Clouds
11:00 PM 38 °F - 34 °F 81%  in 6 mi 2.3 mph - -   Partly Cloudy
11:55 PM 37.4 °F 34.9 °F 32.0 °F 81% 30.45 in 6.2 mi Variable 3.5 mph - N/A   Scattered Clouds